Change the Weather History Date:

Thursday, April 24, 2014

  Actual Average Record
Temperature  
Mean Temperature 43 °F 39 °F  
Max Temperature 55 °F 50 °F 67 °F (1940)
Min Temperature 31 °F 27 °F -10 °F (1948)
Degree Days  
Heating Degree Days 22 26  
Month to date heating degree days 810 829  
Since 1 July heating degree days 11778 12879  
Cooling Degree Days 0 0  
Month to date cooling degree days 0 0  
Year to date cooling degree days 0 0  
Moisture  
Dew Point 27 °F    
Average Humidity 50    
Maximum Humidity 79    
Minimum Humidity 26    
Precipitation  
Precipitation 0.00 in 0.01 in 0.17 in (1937)
Month to date precipitation 0.20 0.22  
Year to date precipitation 1.03 1.47  
Snow  
Snow 0.00 in 0.10 in 1.90 in (1941)
Month to date snowfall 2.9 2.5  
Since 1 July snowfall 48.9 63.7  
Snow Depth 0.00 in    
Sea Level Pressure  
Sea Level Pressure 29.60 in    
Wind  
Wind Speed 5 mph (East)    
Max Wind Speed 12 mph    
Max Gust Speed -    
Visibility 10 miles    
Events      
T = Trace of Precipitation, MM = Missing Value Source: NWS Daily Summary

Daily Weather History Graph

Daily Weather History Graph

Search for Another Location

Airport or City:

Trip Planner

Search our weather history database for the weather conditions in past years. The results will help you decide how hot, cold, wet, or windy it might be!

Date:

Astronomy

Apr. 24, 2014 Rise Set
Actual Time 5:43 AM AKDT 9:58 PM AKDT
Civil Twilight 4:38 AM AKDT 11:03 PM AKDT
Nautical Twilight 2:25 AM AKDT 1:17 AM AKDT
Astronomical Twilight Sun does not rise Sun does not rise
Moon 4:51 AM AKDT (4/24) 3:42 PM AKDT (4/24)
Length of Visible Light 18h 25m
Length of Day
16h 14m
Waning Crescent, 23% of the Moon is Illuminated
Apr 24
Waning Crescent
Apr 28
New
May 6
First Quarter
May 14
Full
May 21
Last Quarter

Hourly Weather History & Observations

Time (AKDT) Temp. Windchill Dew Point Humidity Pressure Visibility Wind Dir Wind Speed Gust Speed Precip Events Conditions
12:53 AM 44.1 °F 39.0 °F 26.1 °F 49% 29.65 in 10.0 mi North 9.2 mph - N/A   Mostly Cloudy
1:53 AM 41.0 °F 37.1 °F 26.1 °F 55% 29.65 in 10.0 mi ENE 5.8 mph - N/A   Scattered Clouds
2:53 AM 39.9 °F 35.8 °F 25.0 °F 55% 29.65 in 10.0 mi Variable 5.8 mph - N/A   Partly Cloudy
3:53 AM 36.0 °F 31.1 °F 25.0 °F 64% 29.66 in 10.0 mi East 5.8 mph - N/A   Partly Cloudy
4:53 AM 35.1 °F - 26.1 °F 70% 29.66 in 10.0 mi Calm Calm - N/A   Partly Cloudy
5:53 AM 32.0 °F - 26.1 °F 79% 29.66 in 10.0 mi Calm Calm - N/A   Partly Cloudy
6:53 AM 34.0 °F - 26.1 °F 73% 29.66 in 10.0 mi Calm Calm - N/A   Scattered Clouds
7:53 AM 39.9 °F - 26.1 °F 58% 29.65 in 10.0 mi Calm Calm - N/A   Scattered Clouds
8:53 AM 42.1 °F - 26.1 °F 53% 29.65 in 10.0 mi Calm Calm - N/A   Scattered Clouds
9:53 AM 45.0 °F - 26.1 °F 48% 29.63 in 10.0 mi Calm Calm - N/A   Scattered Clouds
10:53 AM 46.9 °F - 26.1 °F 44% 29.62 in 10.0 mi Calm Calm - N/A   Mostly Cloudy
11:53 AM 51.1 °F - 28.0 °F 41% 29.60 in 10.0 mi Calm Calm - N/A   Mostly Cloudy
12:53 PM 52.0 °F - 28.0 °F 40% 29.58 in 10.0 mi South 3.5 mph - N/A   Mostly Cloudy
1:53 PM 54.0 °F - 28.0 °F 37% 29.58 in 10.0 mi SE 3.5 mph - N/A   Mostly Cloudy
2:53 PM 54.0 °F - 30.9 °F 41% 29.57 in 10.0 mi East 10.4 mph - N/A   Mostly Cloudy
3:53 PM 55.0 °F - 30.0 °F 38% 29.56 in 10.0 mi East 5.8 mph - N/A   Mostly Cloudy
4:53 PM 53.1 °F - 30.0 °F 41% 29.56 in 10.0 mi ESE 10.4 mph - N/A   Mostly Cloudy
5:53 PM 52.0 °F - 28.0 °F 40% 29.55 in 10.0 mi East 11.5 mph - N/A   Mostly Cloudy
6:53 PM 51.1 °F - 28.0 °F 41% 29.55 in 10.0 mi East 9.2 mph - N/A   Mostly Cloudy
7:53 PM 50.0 °F - 26.1 °F 39% 29.56 in 10.0 mi ENE 10.4 mph - N/A   Mostly Cloudy
8:53 PM 48.0 °F - 27.0 °F 44% 29.55 in 10.0 mi ENE 9.2 mph - N/A   Mostly Cloudy
9:53 PM 42.1 °F 37.1 °F 28.9 °F 60% 29.56 in 10.0 mi NE 8.1 mph - N/A   Mostly Cloudy
10:53 PM 41.0 °F 36.4 °F 28.9 °F 62% 29.56 in 10.0 mi NNE 6.9 mph - N/A   Mostly Cloudy
11:53 PM 39.9 °F - 28.0 °F 63% 29.56 in 10.0 mi Calm Calm - N/A   Mostly Cloudy